Weather in Medan

Indonesia     3°39′17″N   98°39′43″E
temp.,
°C
wind,
m/s
gust,
m/s
humid.,
%
clouds,
%
prec.,
mm/h
press.,
hPa
HPBL,
m
15 april, thu
thu1501:00+25w359073 5.6 1011235
04:00+25w239098 0.2 1009131
07:00+25w118589 0.3 1011115
10:00+28wsw117483 0.2 1012447
13:00+30nne326891 0.2 1010775
16:00+30nne446748 0.0 1007558
19:00+28nne227699 0.2 1009284
22:00+27wnw238067 0.1 1011254
16 april, fri
fri1601:00+25w338899 0.4 1010153
04:00+25w3390100 0.9 1009131
07:00+25wsw2389100 2.1 1011129
10:00+28wnw1277100 4.2 1012183
13:00+28n2377100 5.3 1010387
16:00+27n3579100 6.6 1009319
19:00+25ene1185100 11.8 1011218
22:00+25sw3492100 0.3 1013215
17 april, sat
sat1701:00+25sw118773 0.3 1011101
04:00+25sw118596 0.0 1010111
07:00+24s238792 0.0 1013168
10:00+28se117298 0.1 1014466
13:00+28ne227186 0.1 1012389
16:00+29nne336664 0.0 1009633
19:00+28n347399 0.0 1011398
22:00+27wnw237785 0.2 1013494
18 april, sun
sun1801:00+25w348890 0.7 1012234
04:00+24w3493100 2.9 1011150
07:00+24w3492100 5.9 1013190
10:00+27sw1277100 3.4 1014335
13:00+29ne1169100 6.4 1011659
16:00+29ne2167100 0.0 1008590
19:00+27nne237630 0.3 1010272
22:00+27wnw238192 0.8 1012303
19 april, mon
mon1901:00+25w3491100 3.1 1011170
04:00+25w239095 2.1 101088
07:00+24sw2289100 2.7 1011123
10:00+29w126972 0.2 1012416
13:00+30ne326576 0.2 1010849
16:00+29ne446661 0.1 1008693
19:00+27n237539 0.7 1010320
22:00+27wnw238185 0.3 1011273